User: anonymous   Login
Location: Lake Superior Provincial Park
(47.3335°N, 84.6162°W)
Time: 15:35:18
(UTC-05:00)
Language:

Cosmos 2333 Rocket - Orbit

View from above orbital plane
View from above orbital plane
View from above satellite
View from above satellite

Ground track
Ground track

The orbit data is extracted from the following two-line orbital elements,

1 24298U 96051B   17057.81810355  .00000106  00000-0  83456-4 0  9994
2 24298  70.8486 294.6871 0015590 334.1830  25.8511 14.12481830 56239
Epoch (UTC): 26 February 2017 19:38:04
Eccentricity: 0.0015590
inclination: 70.8486°
perigee height: 839 km
apogee height: 862 km
right ascension of ascending node: 294.6871°
argument of perigee: 334.1830°
revolutions per day: 14.12481830
mean anomaly at epoch: 25.8511°
orbit number at epoch: 5623

The dashed part of the orbit path shows where the satellite is in the earth's shadow,  

DLR